Stations météo

Publicité
Dijon, France (7280): Température de l'air & dewpoint: 13.11.2017 20:00:00 - 19.11.2017 20:00:00 (CET)Dijon, France (7280): Température de l'air 5cm: 13.11.2017 20:00:00 - 19.11.2017 20:00:00 (CET)Dijon, France (7280): Température de l'air -20cm & Température de l'air -100cm: 13.11.2017 20:00:00 - 19.11.2017 20:00:00 (CET)Dijon, France (7280): Vitesse du vent & gusts: 13.11.2017 20:00:00 - 19.11.2017 20:00:00 (CET)Dijon, France (7280): Direction du vent: 13.11.2017 20:00:00 - 19.11.2017 20:00:00 (CET)Dijon, France (7280): reduced air pressure: 13.11.2017 20:00:00 - 19.11.2017 20:00:00 (CET)Dijon, France (7280): visibility: 13.11.2017 20:00:00 - 19.11.2017 20:00:00 (CET)Dijon, France (7280): Ensoleillement: 13.11.2017 20:00:00 - 19.11.2017 20:00:00 (CET)Dijon, France (7280): Quantités de précipitations: 13.11.2017 20:00:00 - 19.11.2017 20:00:00 (CET)
Date & Time tt [°C] td [°C] tt 5cm [°C] tt -20cm [°C] tt -100cm [°C] ff [km/h] ff [knt] fx [km/h] fx [knt] dd ppp [hPa] vv [km] sd [min] rr [mm]
19.11.2017 20:00:00 4,7 3,7 2,9 8,1 12,2 5 3 10 5 SSW 1025,8 7 0 0,0
19.11.2017 19:00:00 6,2 3,4 3,1 8,1 12,2 5 3 8 4 S 1025,4 24 0 0,0
19.11.2017 18:00:00 6,8 3,2 4,5 8,0 12,2 8 4 13 7 W 1024,8 10 0 0,0
19.11.2017 17:00:00 7,6 3,4 6,4 8,0 12,2 5 3 16 9 W 1024,0 10 14 0,0
19.11.2017 16:00:00 9,2 2,7 9,2 7,9 12,2 13 7 19 11 WNW 1023,5 10 45 0,0
19.11.2017 15:00:00 9,1 3,5 8,9 7,9 12,3 9 5 17 9 NW 1023,2 51 10 0,0
19.11.2017 14:00:00 9,0 4,8 10,5 7,8 12,2 11 6 19 10 WNW 1023,2 10 7 0,0
19.11.2017 13:00:00 8,9 5,5 10,7 7,8 12,3 9 5 19 10 NW 1023,3 10 6 0,0
19.11.2017 12:00:00 8,0 6,3 8,0 7,8 12,3 4 2 10 5 - 1023,5 10 3 0,0
19.11.2017 11:00:00 6,1 5,4 5,8 7,8 12,3 8 4 11 6 SSW 1023,5 9 0 0,0
19.11.2017 10:00:00 4,9 4,3 4,6 7,8 12,2 8 4 12 7 S 1023,2 6 0 0,0
19.11.2017 09:00:00 4,3 3,6 4,0 7,9 12,3 9 5 16 8 S 1023,0 8 0 0,0
19.11.2017 08:00:00 3,9 3,0 3,8 7,9 12,3 11 6 18 10 S 1022,3 10 0 0,2
19.11.2017 07:00:00 3,8 2,3 3,8 7,9 12,3 13 7 24 13 S 1021,8 10 0 0,2
19.11.2017 06:00:00 4,0 1,7 3,9 8,0 12,3 18 10 29 16 S 1021,6 10 0 0,0
19.11.2017 05:00:00 4,1 1,3 3,8 8,0 12,3 18 10 30 16 S 1021,9 10 0 0,0
19.11.2017 04:00:00 3,8 1,0 3,8 8,0 12,3 18 10 24 13 S 1022,4 10 0 0,0
19.11.2017 03:00:00 4,2 0,9 3,7 8,0 12,3 16 8 21 11 SSW 1022,9 27 0 0,0
19.11.2017 02:00:00 3,6 0,6 3,5 8,1 12,3 11 6 16 8 SSW 1023,5 10 0 0,0
19.11.2017 01:00:00 3,4 0,8 3,3 8,1 12,3 9 5 14 7 SSW 1024,2 10 0 0,0
19.11.2017 00:00:00 3,3 1,3 2,0 8,1 12,3 9 5 16 8 SSW 1024,7 10 0 0,0
18.11.2017 23:00:00 3,1 1,3 1,4 8,1 12,4 8 4 11 6 S 1025,0 9 0 0,0
18.11.2017 22:00:00 3,1 1,6 2,1 8,1 12,4 8 4 11 6 S 1025,6 10 0 0,0
18.11.2017 21:00:00 3,8 2,3 3,9 8,1 12,3 7 4 12 6 S 1025,9 12 0 0,0
18.11.2017 20:00:00 4,0 2,3 2,1 8,1 12,3 9 5 14 8 SSW 1025,8 10 0 0,0
18.11.2017 19:00:00 3,6 2,0 0,9 8,1 12,4 5 3 11 6 S 1026,1 10 0 0,0
18.11.2017 18:00:00 4,4 1,9 1,0 8,1 12,4 5 3 8 4 S 1026,0 20 0 0,0
18.11.2017 17:00:00 5,7 2,5 3,1 8,0 12,4 2 1 9 5 ENE 1026,1 29 10 0,0
18.11.2017 16:00:00 7,0 3,2 8,4 8,0 12,4 5 3 12 7 - 1025,9 10 38 0,0
18.11.2017 15:00:00 6,8 2,7 8,8 8,0 12,4 5 3 13 7 SE 1026,1 10 0 0,0
18.11.2017 14:00:00 8,0 4,0 10,1 7,9 12,4 8 4 14 8 SE 1025,8 10 15 0,0
18.11.2017 13:00:00 6,4 3,4 9,0 7,9 12,4 8 4 11 6 SE 1026,5 10 0 0,0
18.11.2017 12:00:00 5,6 2,9 7,1 7,9 12,4 5 3 10 5 - 1027,0 10 0 0,0
18.11.2017 11:00:00 5,2 2,9 6,1 7,9 12,4 5 3 8 5 SSE 1026,9 10 0 0,0
18.11.2017 10:00:00 4,9 2,6 5,5 7,9 12,4 5 3 9 5 ESE 1027,0 10 0 0,0
18.11.2017 09:00:00 4,8 2,7 4,7 7,9 12,4 4 2 8 5 ESE 1026,6 19 0 0,0
18.11.2017 08:00:00 4,7 2,4 4,7 7,9 12,5 9 5 17 9 NE 1026,7 10 0 0,0
18.11.2017 07:00:00 4,6 2,5 4,7 7,9 12,4 5 3 18 10 N 1026,4 10 0 0,0
18.11.2017 06:00:00 4,7 2,6 4,8 7,9 12,5 10 5 17 9 N 1026,2 19 0 0,0
18.11.2017 05:00:00 4,9 2,9 5,0 7,9 12,5 9 5 17 9 N 1026,5 10 0 0,0
18.11.2017 04:00:00 4,9 3,2 5,1 7,9 12,5 16 9 22 12 NNE 1026,3 10 0 0,0
18.11.2017 03:00:00 5,1 3,4 5,2 7,9 12,5 13 7 20 11 N 1026,4 14 0 0,0
18.11.2017 02:00:00 5,3 3,8 5,5 7,9 12,5 15 8 21 12 NNE 1026,2 8 0 0,0
18.11.2017 01:00:00 5,5 3,8 5,6 7,8 12,5 8 5 20 11 NNE 1026,3 11 0 0,0
18.11.2017 00:00:00 5,6 4,1 5,7 7,8 12,5 13 7 22 12 NNE 1026,6 10 0 0,0
17.11.2017 23:00:00 6,0 4,5 6,0 7,8 12,5 13 7 21 12 NNE 1026,4 10 0 0,0
17.11.2017 22:00:00 6,1 4,6 6,1 7,7 12,5 13 7 24 13 N 1026,5 10 0 0,0
17.11.2017 21:00:00 6,2 4,5 6,2 7,7 12,5 16 9 25 13 N 1026,3 10 0 0,0
17.11.2017 20:00:00 6,9 4,9 6,2 7,7 12,5 16 9 23 12 N 1026,0 10 0 0,0
17.11.2017 19:00:00 7,0 5,1 5,9 7,6 12,6 13 7 26 14 N 1025,8 10 0 0,0
17.11.2017 18:00:00 7,0 5,3 4,3 7,5 12,5 15 8 23 13 N 1025,5 10 0 0,0
17.11.2017 17:00:00 7,9 5,4 6,4 7,4 12,5 16 8 24 13 NNE 1025,1 20 16 0,0
17.11.2017 16:00:00 9,6 6,1 8,7 7,3 12,5 13 7 26 14 NNE 1024,8 10 28 0,0
17.11.2017 15:00:00 10,0 6,0 11,1 7,2 12,6 16 9 27 15 NNE 1024,8 10 44 0,0
17.11.2017 14:00:00 9,6 5,4 10,9 7,2 12,6 15 8 23 12 NNE 1025,3 10 60 0,0
17.11.2017 13:00:00 8,8 3,8 11,9 7,1 12,6 17 9 28 15 N 1025,8 29 60 0,0
17.11.2017 12:00:00 9,0 3,6 12,4 7,1 12,6 16 9 25 14 N 1025,9 10 60 0,0
17.11.2017 11:00:00 7,0 2,5 5,7 7,1 12,6 9 5 19 11 N 1026,7 10 52 0,0
17.11.2017 10:00:00 3,9 1,8 2,6 7,2 12,6 9 5 16 8 N 1027,2 10 49 0,0
17.11.2017 09:00:00 2,3 1,4 -0,2 7,2 12,6 8 4 12 6 N 1027,4 6 46 0,0
17.11.2017 08:00:00 0,3 -0,3 -0,6 7,2 12,6 9 5 17 9 NNW 1027,2 5 0 0,0
17.11.2017 07:00:00 1,5 0,9 1,4 7,2 12,6 11 6 18 10 N 1026,9 6 0 0,0
17.11.2017 06:00:00 0,9 0,3 1,4 7,3 12,6 11 6 15 8 NNW 1026,8 5 0 0,0
17.11.2017 05:00:00 0,7 0,0 1,1 7,3 12,6 4 2 10 6 N 1026,9 4,7 0 0,0
17.11.2017 04:00:00 0,7 0,0 0,8 7,4 12,6 8 4 10 5 N 1027,1 5 0 0,0
17.11.2017 03:00:00 0,6 -0,1 -0,3 7,4 12,7 8 4 9 5 NNE 1027,2 5 0 0,0
17.11.2017 02:00:00 0,5 -0,1 -0,8 7,5 12,7 6 4 9 5 N 1027,3 4,0 0 0,0
17.11.2017 01:00:00 -0,2 -0,9 -0,6 7,5 12,7 4 2 13 7 - 1027,2 5 0 0,0
17.11.2017 00:00:00 0,1 -0,5 -0,4 7,6 12,7 5 3 7 4 NNW 1027,4 5 0 0,0
16.11.2017 23:00:00 -0,4 -1,0 -0,5 7,6 12,7 5 3 8 5 NNW 1027,7 5 0 0,0
16.11.2017 22:00:00 -0,3 -0,9 -2,2 7,7 12,7 5 3 10 5 NE 1027,3 4,4 0 0,0
16.11.2017 21:00:00 -1,7 -2,3 -3,2 7,7 12,7 4 2 6 3 - 1027,6 4,7 0 0,0
16.11.2017 20:00:00 -1,2 -1,8 -2,9 7,7 12,7 0 0 7 4 N 1027,1 4,3 0 0,0
16.11.2017 19:00:00 -0,9 -1,9 -2,2 7,7 12,7 3 2 6 3 S 1026,8 3,7 0 0,0
16.11.2017 18:00:00 0,3 -0,8 -1,4 7,7 12,7 4 2 5 3 SSE 1026,3 6 0 0,0
16.11.2017 17:00:00 2,0 0,2 2,0 7,7 12,7 4 2 5 3 SE 1026,0 8 0 0,0
16.11.2017 16:00:00 2,7 0,4 4,3 7,6 12,7 4 2 6 3 - 1026,0 9 0 0,0
16.11.2017 15:00:00 2,7 0,1 5,9 7,6 12,7 0 0 12 6 N 1025,9 10 0 0,0
16.11.2017 14:00:00 2,8 0,4 6,5 7,6 12,7 3 1 12 6 E 1025,9 10 0 0,0
16.11.2017 13:00:00 2,3 0,2 6,4 7,6 12,7 8 4 16 9 N 1026,1 8 0 0,0
16.11.2017 12:00:00 1,5 -0,3 3,5 7,6 12,8 0 0 11 6 N 1026,3 8 0 0,0
16.11.2017 11:00:00 1,4 0,2 3,0 7,7 12,8 5 3 12 7 - 1026,4 8 0 0,0
16.11.2017 10:00:00 1,2 0,0 2,6 7,7 12,8 5 3 13 7 - 1026,2 6 0 0,0
16.11.2017 09:00:00 0,9 0,2 1,8 7,7 12,8 8 4 14 7 NE 1026,0 6 0 0,0
16.11.2017 08:00:00 0,4 0,1 1,6 7,8 12,8 8 4 13 7 NNE 1025,6 5 0 0,0
16.11.2017 07:00:00 0,2 0,1 1,1 7,8 12,8 4 2 14 7 NNE 1025,1 2,7 0 0,0
16.11.2017 06:00:00 0,0 -0,1 1,0 7,9 12,8 8 4 19 10 N 1024,8 1,0 0 0,0
16.11.2017 05:00:00 -0,1 -0,2 1,0 7,9 12,8 13 7 18 10 N 1024,7 1,0 0 0,0
16.11.2017 04:00:00 -0,2 -0,5 0,3 8,0 12,8 13 7 20 11 N 1024,7 1,0 0 0,0
16.11.2017 03:00:00 -0,7 -1,1 0,2 8,0 12,8 15 8 19 10 N 1025,1 3,5 0 0,0
16.11.2017 02:00:00 -0,5 -1,1 0,6 8,1 12,8 13 7 20 11 N 1025,0 4,8 0 0,0
16.11.2017 01:00:00 0,9 -0,1 0,9 8,1 12,8 15 8 21 11 N 1025,0 7 0 0,0
16.11.2017 00:00:00 0,8 -0,5 - - - 13 7 18 10 N 1025,1 10 - 0,0
15.11.2017 23:00:00 1,5 0,2 0,8 8,2 12,8 13 7 17 9 N 1025,2 10 0 0,0
15.11.2017 22:00:00 1,4 -0,1 0,6 8,2 12,9 11 6 14 8 N 1025,6 10 0 0,0
15.11.2017 21:00:00 1,6 -0,8 1,5 8,2 12,9 9 5 12 6 N 1025,3 10 0 0,0
15.11.2017 20:00:00 3,2 0,3 1,9 8,2 12,9 9 5 13 7 N 1025,3 10 0 0,0
15.11.2017 19:00:00 3,9 1,6 2,4 8,2 12,9 9 5 13 7 N 1024,9 10 0 0,0
15.11.2017 18:00:00 3,9 1,3 2,6 8,1 12,9 8 4 9 5 N 1024,7 10 0 0,0
15.11.2017 17:00:00 5,8 2,1 4,4 8,1 12,9 5 3 14 8 NNE 1024,5 10 32 0,0
15.11.2017 16:00:00 7,3 2,4 6,9 8,1 12,9 11 6 23 12 NNE 1024,5 10 60 0,0
15.11.2017 15:00:00 7,1 2,2 7,7 8,0 12,9 15 8 23 13 N 1024,7 10 60 0,0
15.11.2017 14:00:00 6,3 2,2 7,5 8,1 12,9 16 9 26 14 N 1025,1 10 60 0,0
15.11.2017 13:00:00 5,0 2,0 - - - 18 10 26 14 N 1025,7 10 - -
15.11.2017 12:00:00 3,0 1,5 3,8 8,1 12,9 16 9 23 13 N 1026,8 10 0 0,0
15.11.2017 11:00:00 1,7 0,8 2,8 8,1 12,9 15 8 24 13 N 1027,4 9 0 0,0
15.11.2017 10:00:00 1,0 0,6 1,6 8,2 12,9 15 8 22 12 N 1027,4 6 0 0,0
15.11.2017 09:00:00 0,3 0,0 1,5 8,3 12,9 13 7 21 11 N 1027,8 4,9 0 0,0
15.11.2017 08:00:00 0,2 -0,2 1,0 8,3 12,9 13 7 22 12 N 1027,5 5 0 0,0
15.11.2017 07:00:00 -0,4 -0,8 0,2 8,4 12,9 9 5 16 9 N 1027,3 6 0 0,0
15.11.2017 06:00:00 -1,2 -1,8 -0,1 8,5 12,9 7 4 16 9 NNE 1027,2 7 0 0,0
15.11.2017 05:00:00 -0,8 -1,4 -0,4 8,6 13,0 11 6 15 8 NNE 1027,1 9 0 0,0
15.11.2017 04:00:00 -0,9 -1,9 0,1 8,6 12,9 9 5 16 9 NE 1027,2 10 0 0,0
15.11.2017 03:00:00 -0,1 -1,1 0,9 8,6 12,9 13 7 19 10 N 1027,3 10 0 0,0
15.11.2017 02:00:00 0,3 -0,6 1,1 8,7 13,0 13 7 16 9 N 1027,6 10 0 0,0
15.11.2017 01:00:00 0,8 -0,1 1,4 8,7 12,9 11 6 14 7 NNE 1027,9 8 0 0,0
15.11.2017 00:00:00 1,4 0,7 0,9 8,8 13,0 9 5 14 7 N 1027,9 10 0 0,0
14.11.2017 23:00:00 1,4 -0,1 1,8 8,8 13,0 11 6 18 10 N 1027,9 10 0 0,0
14.11.2017 22:00:00 1,3 0,0 1,9 8,8 13,0 13 7 16 9 N 1028,1 17 0 0,0
14.11.2017 21:00:00 3,0 1,4 3,1 8,8 13,0 11 6 16 9 N 1028,1 10 0 0,0
14.11.2017 20:00:00 4,0 1,9 3,7 8,8 13,0 12 7 17 9 N 1028,1 28 0 0,0
14.11.2017 19:00:00 4,6 1,8 4,1 8,8 13,0 13 7 18 10 N 1027,7 10 0 0,0
14.11.2017 18:00:00 5,0 2,2 4,1 8,8 13,0 11 6 13 7 NNE 1027,3 10 0 0,0
14.11.2017 17:00:00 5,9 1,8 5,4 8,7 13,0 9 5 27 15 NNE 1026,8 10 45 0,0
14.11.2017 16:00:00 7,6 1,9 7,2 8,7 13,0 21 11 29 16 NNE 1026,3 10 60 0,0
14.11.2017 15:00:00 8,1 2,3 8,6 8,7 13,0 16 9 28 15 N 1026,1 10 60 0,0
14.11.2017 14:00:00 7,3 3,2 8,3 8,7 13,0 13 7 19 11 NNE 1026,3 10 60 0,0
14.11.2017 13:00:00 6,0 3,0 6,0 8,7 13,0 13 7 22 12 NNE 1026,9 10 38 0,0
14.11.2017 12:00:00 4,4 2,6 6,2 8,7 13,0 15 8 25 13 NE 1027,3 10 10 0,0
14.11.2017 11:00:00 4,0 2,5 4,5 8,8 13,0 15 8 23 13 NE 1027,4 10 3 0,0
14.11.2017 10:00:00 3,4 2,1 3,8 8,8 13,0 15 8 20 11 ENE 1027,2 10 48 0,0
14.11.2017 09:00:00 3,1 1,8 1,5 8,9 13,0 11 6 13 7 NNE 1027,0 10 40 0,0
14.11.2017 08:00:00 1,9 0,9 2,0 8,9 13,1 9 5 12 6 N 1026,5 10 0 0,0
14.11.2017 07:00:00 2,1 1,2 1,2 9,0 13,0 11 6 18 10 NNW 1026,2 10 0 0,0
14.11.2017 06:00:00 1,1 0,1 1,4 9,0 13,0 9 5 16 9 N 1025,8 10 0 0,0
14.11.2017 05:00:00 3,3 1,5 3,2 9,0 13,0 13 7 22 12 N 1025,2 10 0 0,0
14.11.2017 04:00:00 3,8 2,2 3,4 9,1 13,0 16 9 25 14 N 1024,9 10 0 0,0
14.11.2017 03:00:00 3,8 2,0 3,8 9,1 13,0 15 8 25 13 N 1024,7 10 0 0,0
14.11.2017 02:00:00 4,3 2,2 4,1 9,2 13,1 15 8 29 16 N 1024,5 10 0 0,0
14.11.2017 01:00:00 5,1 2,8 4,3 9,2 13,0 21 11 29 16 N 1024,4 31 0 0,0
14.11.2017 00:00:00 5,0 2,7 3,7 9,2 13,0 18 10 31 17 N 1024,1 10 0 0,0
13.11.2017 23:00:00 4,4 2,4 3,7 9,2 13,0 19 10 32 17 NNW 1023,9 30 0 0,0
13.11.2017 22:00:00 4,5 2,5 3,7 9,3 13,1 18 10 29 16 NNW 1023,5 10 0 0,0
13.11.2017 21:00:00 4,6 2,3 3,9 9,3 13,1 18 10 34 19 NNW 1023,3 10 0 0,0
13.11.2017 20:00:00 5,0 2,2 4,0 9,3 13,1 24 13 34 18 NNW 1022,8 10 0 0,0

tt = Température de l'air
td = dewpoint
tt 5cm = Température de l'air 5cm
tt -20cm = Température de l'air -20cm
tt -100cm = Température de l'air -100cm
ff = Vitesse du vent
fx = gusts
dd = Direction du vent
ppp = reduced air pressure
vv = visibility
sd = Ensoleillement
rr = Quantités de précipitations

stations d'obs. à proximité